STARLINK-34934

Last updated on Mon Oct 20 2025 00:02:08 GMT+0000 (Coordinated Universal Time)

1 65897U 25224R 25292.25002315 -.01259400 00000+0 -56085-2 0 9996 2 65897 53.1507 313.3566 0001167 84.2542 104.6454 15.86140874 3107
UTC large
Height (km)
Speed (km/s)
/
Latitude / Longitude
Inclination (degrees)
Orbital Period (minutes)
Azimuth
Elevation
Range (km)
Doppler Factor

Next 0 passes for location: London (51.5072 / 0.1276)

Sorry there are no passes over London.